Other Surface Observations
Issued by NWS Charleston, SC

Home | Current Version | Previous Version | Text Only | Print | Product List | Glossary On
Versions: 1 2 3 4 5 6 7 8 9 10 11 12 13 14 15 16 17 18 19 20 21 22 23 24 25 26 27 28 29 30 31 32 33 34 35 36 37 38 39 40 41 42 43 44 45 46 47 48 49 50
000
SXUS52 KCHS 310426
OSOCHS

MARINE OBSERVATIONS
NATIONAL WEATHER SERVICE CHARLESTON SC
1100 PM EST FRI JAN 30 2015

...DOWNTOWN CHARLESTON AND HARBOR...

CITY           SKY/WX    TMP DP  RH WIND       PRES   REMARKS
WATERFRONT PRK   N/A     45 N/A N/A N12G17      N/A
FORT JOHNSON   NOT AVBL

...LAKE MOULTRIE...

CITY           SKY/WX    TMP DP  RH WIND       PRES   REMARKS
PINOPOLIS        N/A     46  27  46 VRB14     30.19R

...LAKE AND SUPPLEMENTAL COASTAL OBSERVATIONS...

STATION/POSITION TIME  TEMP    WIND        PRES    WAVE   SWELL
                       AIR SEA DIR/SP/G            HT/PER HT/PER/DIR
                 (UTC) (F)     (DEG/KT/KT) (MB)    (FT/S) (FT/S/D)
FORT PULASKI     0400   47 52   20/  4/  5 1026.0R
SAPELO ISLAND    0400   42     310/  2     1025.0S
UPR LAKE MARION  NOT AVBL
WINYAH BAY       0345   42     350/  6     1024.0S
LAKE MURRAY      0400   39     330/  3/  6 1025.7R
ACE BASIN NERRS  NOT AVBL


...C-MAN AND BUOY OBSERVATIONS...

STATION/POSITION TIME  TEMP    WIND        PRES    WAVE   SWELL
                       AIR SEA DIR/SP/G            HT/PER HT/PER/DIR
                 (UTC) (F)     (DEG/KT/KT) (MB)    (FT/S) (FT/S/D)
BUOY 41004       0350   53 68  350/ 23/ 29 1023.8R   6/ 6   2/11
BUOY 41008       0350   53 54  360/ 12/ 14 1025.2R   2/ 3
FOLLY BEACH CMAN 0400   46     360/ 11/ 13 1026.1R
CAPERS NS BUOY   0300   48      10/ 14/ 14   N/A
FRIPP NS BUOY    NOT AVBL
5E ST. MARYS GA  0321      56                N/A     2/11


STATION/POSITION TIME  TEMP    WIND        PRES    WAVE   SWELL
                       AIR SEA DIR/SP/G            HT/PER HT/PER/DIR
                 (UTC) (F)     (DEG/KT/KT) (MB)    (FT/S) (FT/S/D)
FRYING PAN BUOY  0350   47 62  330/ 25/ 31 1024.1R   6/ 5
BUOY 41025       0350   42 65  330/ 25/ 31 1020.9R   6/ 6   2/ 40/10
CAPE LOOKOUT NC  0400   39     330/ 22/ 27 1023.2R
BUOY 41002       0350   58 71  320/ 23/ 29 1019.0R  12/ 8
BUOY 41010       0320   65 73  340/ 19/ 23 1021.6R
ST AUGUSTINE FL  0400   52     340/ 12/ 13 1025.1R

$$



USA.gov is the U.S. government's official web portal to all federal, state and local government web resources and services.